Total_Precipitation_Accumulation
0.07 0.16 0.35 0.61 0.82 1.19 1.15 0.82 0.50 0.32 0.22 0.16 0.12 0.10 0.07 0.05 0.04 0.04 0.04 0.06 0.06 0.07 0.06 0.05 0.06 0.05 0.05 0.05 0.04 0.04 0.03 0.02 0.01 0.01 0.01 0.01 0.01 0.01 0.01 0.01 0.01 0.00 0.00
0.05 0.11 0.24 0.37 0.45 0.53 0.63 0.65 0.60 0.43 0.31 0.26 0.20 0.17 0.13 0.10 0.10 0.12 0.13 0.12 0.12 0.10 0.09 0.10 0.09 0.08 0.06 0.05 0.04 0.03 0.01 0.01 0.01 0.01 0.01 0.00 0.00 0.00 0.00 0.00 0.00 0.00 0.00
0.05 0.08 0.14 0.24 0.33 0.42 0.52 0.52 0.44 0.35 0.27 0.25 0.22 0.22 0.20 0.19 0.19 0.20 0.18 0.14 0.12 0.12 0.12 0.11 0.09 0.07 0.05 0.03 0.03 0.02 0.02 0.01 0.01 0.01 0.01 0.02 0.01 0.00 0.00 0.00 0.00 0.00 0.00
0.03 0.07 0.11 0.16 0.25 0.35 0.38 0.34 0.28 0.24 0.20 0.20 0.20 0.20 0.20 0.20 0.20 0.18 0.16 0.13 0.09 0.08 0.06 0.05 0.04 0.03 0.02 0.01 0.01 0.01 0.01 0.02 0.01 0.01 0.01 0.02 0.03 0.04 0.02 0.00 0.00 0.00 0.00
0.03 0.06 0.09 0.13 0.20 0.25 0.26 0.23 0.18 0.15 0.13 0.13 0.15 0.16 0.17 0.15 0.14 0.10 0.07 0.04 0.02 0.01 0.01 0.01 0.01 0.01 0.01 0.01 0.01 0.01 0.02 0.02 0.02 0.01 0.01 0.01 0.02 0.03 0.06 0.03 0.01 0.00 0.00
0.03 0.04 0.06 0.09 0.12 0.16 0.17 0.15 0.13 0.13 0.14 0.17 0.18 0.15 0.12 0.08 0.04 0.02 0.01 0.00 0.00 0.00 0.00 0.00 0.00 0.01 0.01 0.02 0.02 0.02 0.02 0.03 0.03 0.03 0.03 0.04 0.05 0.05 0.07 0.06 0.02 0.01 0.00
0.03 0.05 0.06 0.07 0.09 0.11 0.13 0.13 0.13 0.12 0.10 0.07 0.04 0.03 0.02 0.01 0.00 0.00 0.00 0.00 0.00 0.00 0.00 0.00 0.00 0.01 0.01 0.01 0.01 0.02 0.02 0.03 0.04 0.04 0.05 0.05 0.06 0.06 0.08 0.09 0.06 0.04 0.01
0.04 0.06 0.08 0.08 0.08 0.09 0.09 0.09 0.07 0.04 0.02 0.01 0.01 0.01 0.00 0.00 0.00 0.00 0.00 0.00 0.00 0.00 0.00 0.00 0.01 0.01 0.01 0.01 0.02 0.02 0.02 0.04 0.05 0.05 0.06 0.07 0.06 0.07 0.10 0.14 0.16 0.14 0.07
0.06 0.07 0.08 0.08 0.07 0.06 0.05 0.04 0.03 0.02 0.01 0.01 0.01 0.00 0.00 0.00 0.00 0.00 0.01 0.00 0.00 0.00 0.00 0.01 0.01 0.01 0.02 0.03 0.04 0.05 0.05 0.07 0.07 0.07 0.07 0.08 0.08 0.10 0.12 0.16 0.23 0.28 0.21
0.06 0.07 0.07 0.07 0.05 0.04 0.04 0.03 0.02 0.01 0.01 0.00 0.00 0.00 0.00 0.00 0.01 0.01 0.01 0.01 0.01 0.01 0.01 0.02 0.02 0.03 0.04 0.05 0.07 0.07 0.07 0.08 0.08 0.08 0.08 0.08 0.08 0.09 0.10 0.12 0.16 0.24 0.30
0.08 0.08 0.06 0.04 0.05 0.04 0.04 0.03 0.02 0.01 0.01 0.01 0.01 0.00 0.00 0.01 0.01 0.01 0.01 0.02 0.02 0.02 0.03 0.03 0.04 0.05 0.06 0.07 0.09 0.09 0.08 0.07 0.07 0.06 0.07 0.07 0.09 0.10 0.11 0.14 0.18 0.22 0.31
0.10 0.07 0.05 0.04 0.05 0.05 0.04 0.03 0.03 0.03 0.02 0.01 0.01 0.01 0.01 0.01 0.02 0.02 0.02 0.03 0.04 0.04 0.05 0.05 0.06 0.07 0.07 0.09 0.09 0.08 0.07 0.07 0.07 0.08 0.10 0.10 0.11 0.12 0.13 0.17 0.21 0.25 0.33
0.07 0.05 0.05 0.06 0.07 0.06 0.05 0.05 0.06 0.05 0.04 0.03 0.02 0.02 0.02 0.02 0.03 0.03 0.04 0.05 0.05 0.06 0.07 0.08 0.09 0.09 0.08 0.07 0.08 0.08 0.07 0.07 0.09 0.11 0.12 0.13 0.16 0.17 0.20 0.27 0.31 0.33 0.37
0.07 0.07 0.08 0.09 0.10 0.10 0.10 0.09 0.08 0.07 0.05 0.03 0.02 0.02 0.02 0.04 0.04 0.05 0.05 0.06 0.06 0.08 0.09 0.09 0.09 0.08 0.07 0.06 0.06 0.06 0.06 0.07 0.10 0.14 0.17 0.20 0.25 0.28 0.31 0.34 0.33 0.36 0.41
0.09 0.13 0.16 0.17 0.17 0.15 0.12 0.10 0.08 0.05 0.03 0.02 0.02 0.02 0.03 0.05 0.05 0.06 0.06 0.07 0.08 0.08 0.08 0.07 0.06 0.06 0.05 0.04 0.03 0.03 0.05 0.09 0.12 0.14 0.16 0.21 0.28 0.33 0.31 0.29 0.29 0.35 0.44
0.18 0.21 0.22 0.21 0.18 0.16 0.13 0.09 0.07 0.05 0.03 0.03 0.03 0.03 0.03 0.04 0.06 0.07 0.08 0.10 0.09 0.08 0.07 0.06 0.05 0.04 0.03 0.04 0.05 0.05 0.06 0.11 0.15 0.17 0.16 0.15 0.17 0.17 0.18 0.24 0.27 0.33 0.47
0.23 0.23 0.21 0.20 0.20 0.19 0.16 0.15 0.11 0.07 0.05 0.04 0.03 0.03 0.03 0.04 0.06 0.07 0.10 0.09 0.08 0.07 0.06 0.05 0.04 0.04 0.03 0.03 0.04 0.05 0.07 0.12 0.17 0.19 0.16 0.11 0.08 0.09 0.11 0.16 0.23 0.31 0.46
0.22 0.20 0.19 0.21 0.24 0.26 0.23 0.17 0.11 0.07 0.05 0.04 0.03 0.03 0.03 0.05 0.07 0.09 0.09 0.07 0.06 0.06 0.06 0.04 0.03 0.03 0.03 0.02 0.02 0.03 0.05 0.10 0.13 0.15 0.13 0.11 0.07 0.10 0.18 0.20 0.21 0.28 0.40
0.19 0.20 0.22 0.28 0.32 0.30 0.22 0.15 0.09 0.05 0.03 0.03 0.03 0.03 0.03 0.05 0.05 0.05 0.06 0.06 0.06 0.06 0.04 0.03 0.02 0.02 0.02 0.01 0.01 0.02 0.03 0.05 0.08 0.09 0.09 0.07 0.07 0.15 0.29 0.34 0.39 0.47 0.60
0.17 0.24 0.32 0.35 0.33 0.25 0.17 0.11 0.06 0.04 0.03 0.03 0.04 0.04 0.03 0.03 0.02 0.03 0.05 0.06 0.06 0.05 0.03 0.02 0.02 0.02 0.02 0.01 0.00 0.01 0.02 0.03 0.04 0.05 0.05 0.07 0.11 0.20 0.36 0.49 0.56 0.64 0.79
0.24 0.30 0.34 0.30 0.24 0.16 0.11 0.08 0.06 0.05 0.04 0.03 0.03 0.03 0.02 0.01 0.01 0.02 0.05 0.04 0.03 0.02 0.02 0.01 0.01 0.01 0.01 0.01 0.00 0.00 0.01 0.02 0.03 0.04 0.07 0.12 0.19 0.27 0.45 0.63 0.66 0.82 0.95
0.30 0.29 0.25 0.20 0.12 0.08 0.06 0.06 0.05 0.03 0.02 0.02 0.02 0.01 0.01 0.00 0.00 0.02 0.02 0.02 0.02 0.01 0.01 0.01 0.01 0.01 0.01 0.01 0.00 0.00 0.01 0.02 0.05 0.09 0.15 0.23 0.28 0.33 0.52 0.68 0.86 1.07 1.13
0.25 0.22 0.16 0.11 0.06 0.03 0.03 0.03 0.02 0.01 0.01 0.02 0.02 0.01 0.00 0.00 0.00 0.01 0.01 0.01 0.01 0.00 0.01 0.01 0.01 0.01 0.01 0.01 0.01 0.00 0.01 0.02 0.06 0.13 0.23 0.30 0.32 0.45 0.67 0.93 1.12 1.19 1.07
0.17 0.11 0.06 0.04 0.02 0.01 0.01 0.01 0.00 0.00 0.01 0.01 0.01 0.00 0.00 0.00 0.00 0.00 0.00 0.00 0.01 0.01 0.01 0.02 0.02 0.02 0.02 0.02 0.02 0.02 0.02 0.03 0.05 0.11 0.22 0.32 0.40 0.56 0.81 1.01 1.11 1.09 0.99
0.05 0.03 0.02 0.01 0.00 0.00 0.00 0.00 0.00 0.00 0.00 0.01 0.00 0.00 0.00 0.00 0.00 0.00 0.00 0.00 0.01 0.01 0.02 0.03 0.03 0.04 0.05 0.03 0.04 0.05 0.05 0.05 0.07 0.12 0.17 0.24 0.36 0.55 0.74 0.88 0.95 0.92 0.84
0.01 0.01 0.00 0.00 0.00 0.00 0.00 0.00 0.00 0.00 0.00 0.00 0.00 0.00 0.00 0.00 0.00 0.00 0.00 0.00 0.00 0.01 0.01 0.02 0.03 0.03 0.03 0.03 0.03 0.04 0.05 0.07 0.10 0.12 0.17 0.26 0.39 0.57 0.74 0.85 0.85 0.77 0.68